• în Republica Moldova
  • Lista ţărilor
  • Pe 7 zile
  • Temperatura apei
  • Hartă satelitară
  • Meteo pe hartă
  • Widget-uri
  • user-avatar
    Intrare

    Meteo pe oră la Ganja

    Astăzi, 27 Aprilie, Joi

    Timp Temperatura Precipitaţii Vânt Presiune Umiditate
    00:00 +6°C° 0 mm 1 m/s 736 mmHg 77%
    01:00 +6°C° 0 mm 1 m/s 736 mmHg 78%
    02:00 +5°C° 0 mm 1 m/s 735 mmHg 80%
    03:00 +5°C° 0 mm 1 m/s 735 mmHg 81%
    04:00 +6°C° 0 mm 1 m/s 735 mmHg 79%
    05:00 +7°C° 0 mm 1 m/s 735 mmHg 76%
    06:00 +7°C° 0 mm 1 m/s 735 mmHg 73%
    07:00 +9°C° 0 mm 1 m/s 735 mmHg 65%
    08:00 +10°C° 0 mm 2 m/s 735 mmHg 57%
    09:00 +12°C° 0 mm 3 m/s 735 mmHg 47%
    10:00 +13°C° 0 mm 3 m/s 734 mmHg 45%
    11:00 +14°C° 0 mm 4 m/s 734 mmHg 44%
    12:00 +16°C° 0 mm 5 m/s 734 mmHg 42%
    13:00 +16°C° 0 mm 5 m/s 734 mmHg 44%
    14:00 +16°C° 0 mm 5 m/s 733 mmHg 45%
    15:00 +16°C° 0 mm 5 m/s 733 mmHg 47%
    16:00 +15°C° 0 mm 5 m/s 733 mmHg 51%
    17:00 +14°C° 0 mm 4 m/s 733 mmHg 56%
    18:00 +13°C° 0 mm 4 m/s 733 mmHg 61%
    19:00 +12°C° 0 mm 3 m/s 733 mmHg 66%
    20:00 +10°C° 0 mm 3 m/s 734 mmHg 72%
    21:00 +9°C° 0 mm 2 m/s 734 mmHg 78%
    22:00 +8°C° 0 mm 2 m/s 734 mmHg 79%
    23:00 +8°C° 0 mm 2 m/s 734 mmHg 80%

    Mâine, 28 Aprilie, Vineri

    Timp Temperatura Precipitaţii Vânt Presiune Umiditate
    00:00 +8°C° 0 mm 2 m/s 734 mmHg 81%
    01:00 +9°C° 0 mm 1 m/s 734 mmHg 81%
    02:00 +8°C° 0 mm 1 m/s 734 mmHg 80%
    03:00 +7°C° 0 mm 0 m/s 734 mmHg 80%
    04:00 +8°C° 0 mm 0 m/s 734 mmHg 79%
    05:00 +9°C° 0 mm 1 m/s 734 mmHg 77%
    06:00 +10°C° 0 mm 1 m/s 733 mmHg 76%
    07:00 +11°C° 0 mm 1 m/s 733 mmHg 70%
    08:00 +13°C° 0 mm 1 m/s 733 mmHg 64%
    09:00 +14°C° 0 mm 2 m/s 732 mmHg 58%
    10:00 +15°C° 0 mm 2 m/s 732 mmHg 55%
    11:00 +16°C° 0 mm 2 m/s 731 mmHg 53%
    12:00 +17°C° 0 mm 2 m/s 731 mmHg 51%
    13:00 +18°C° 0 mm 2 m/s 730 mmHg 50%
    14:00 +18°C° 0 mm 2 m/s 730 mmHg 50%
    15:00 +19°C° 0 mm 2 m/s 729 mmHg 49%
    16:00 +18°C° 0 mm 2 m/s 729 mmHg 52%
    17:00 +18°C° 0 mm 2 m/s 729 mmHg 56%
    18:00 +18°C° 0 mm 1 m/s 729 mmHg 59%
    19:00 +15°C° 0 mm 1 m/s 729 mmHg 65%
    20:00 +13°C° 0 mm 1 m/s 729 mmHg 70%
    21:00 +10°C° 0 mm 0 m/s 730 mmHg 75%
    22:00 +11°C° 0 mm 1 m/s 729 mmHg 75%
    23:00 +11°C° 0 mm 1 m/s 729 mmHg 76%

    Poimâine, 29 Aprilie, Sâmbătă

    Timp Temperatura Precipitaţii Vânt Presiune Umiditate
    00:00 +10°C° 0 mm 1 m/s 729 mmHg 76%
    01:00 +10°C° 0 mm 1 m/s 729 mmHg 76%
    02:00 +10°C° 0 mm 1 m/s 728 mmHg 76%
    03:00 +10°C° 0 mm 1 m/s 728 mmHg 76%
    04:00 +11°C° 0 mm 1 m/s 728 mmHg 74%
    05:00 +12°C° 0 mm 1 m/s 728 mmHg 73%
    06:00 +12°C° 0 mm 2 m/s 728 mmHg 71%
    07:00 +14°C° 0 mm 2 m/s 728 mmHg 64%
    08:00 +16°C° 0 mm 2 m/s 727 mmHg 57%
    09:00 +18°C° 0 mm 2 m/s 727 mmHg 50%
    10:00 +20°C° 0 mm 2 m/s 727 mmHg 48%
    11:00 +21°C° 0 mm 2 m/s 726 mmHg 45%
    12:00 +23°C° 0 mm 2 m/s 726 mmHg 43%
    13:00 +23°C° 0,2 mm 2 m/s 726 mmHg 43%
    14:00 +24°C° 0,2 mm 2 m/s 725 mmHg 44%
    15:00 +24°C° 0,2 mm 2 m/s 725 mmHg 45%
    16:00 +23°C° 0,4 mm 2 m/s 725 mmHg 49%
    17:00 +21°C° 0,4 mm 2 m/s 725 mmHg 53%
    18:00 +20°C° 0,4 mm 2 m/s 725 mmHg 57%
    19:00 +19°C° 0,2 mm 2 m/s 726 mmHg 60%
    20:00 +18°C° 0,2 mm 2 m/s 726 mmHg 63%
    21:00 +16°C° 0,2 mm 2 m/s 726 mmHg 65%
    22:00 +15°C° 0 mm 2 m/s 726 mmHg 68%
    23:00 +14°C° 0 mm 1 m/s 726 mmHg 70%

    30 Aprilie, Duminică

    Timp Temperatura Precipitaţii Vânt Presiune Umiditate
    00:00 +13°C° 0 mm 1 m/s 726 mmHg 72%
    01:00 +13°C° 0 mm 1 m/s 725 mmHg 74%
    02:00 +11°C° 0 mm 0 m/s 725 mmHg 76%
    03:00 +10°C° 0 mm 0 m/s 725 mmHg 78%
    04:00 +12°C° 0 mm 1 m/s 725 mmHg 75%
    05:00 +13°C° 0 mm 1 m/s 725 mmHg 72%
    06:00 +14°C° 0 mm 2 m/s 726 mmHg 69%
    07:00 +16°C° 0 mm 2 m/s 726 mmHg 63%
    08:00 +19°C° 0 mm 2 m/s 726 mmHg 56%
    09:00 +21°C° 0 mm 2 m/s 726 mmHg 49%
    10:00 +23°C° 0,1 mm 2 m/s 725 mmHg 46%
    11:00 +24°C° 0,1 mm 2 m/s 725 mmHg 44%
    12:00 +25°C° 0,1 mm 1 m/s 725 mmHg 41%
    13:00 +26°C° 0,4 mm 1 m/s 724 mmHg 41%
    14:00 +26°C° 0,4 mm 1 m/s 724 mmHg 41%
    15:00 +26°C° 0,4 mm 1 m/s 724 mmHg 40%
    16:00 +25°C° 0,2 mm 1 m/s 724 mmHg 44%
    17:00 +25°C° 0,2 mm 1 m/s 724 mmHg 48%
    18:00 +24°C° 0,2 mm 1 m/s 724 mmHg 52%
    19:00 +22°C° 0 mm 1 m/s 724 mmHg 55%
    20:00 +20°C° 0 mm 1 m/s 725 mmHg 59%
    21:00 +18°C° 0 mm 1 m/s 725 mmHg 63%
    22:00 +16°C° 0 mm 1 m/s 725 mmHg 63%
    23:00 +16°C° 0 mm 1 m/s 725 mmHg 63%

    1 Mai, Luni

    Timp Temperatura Precipitaţii Vânt Presiune Umiditate
    00:00 +15°C° 0 mm 1 m/s 725 mmHg 64%
    01:00 +14°C° 0 mm 0 m/s 725 mmHg 65%
    02:00 +14°C° 0 mm 0 m/s 725 mmHg 66%
    03:00 +13°C° 0 mm 0 m/s 725 mmHg 66%
    04:00 +14°C° 0 mm 0 m/s 725 mmHg 64%
    05:00 +16°C° 0 mm 1 m/s 725 mmHg 62%
    06:00 +18°C° 0 mm 1 m/s 726 mmHg 60%
    07:00 +20°C° 0 mm 1 m/s 726 mmHg 53%
    08:00 +21°C° 0 mm 2 m/s 726 mmHg 47%
    09:00 +23°C° 0 mm 2 m/s 726 mmHg 41%
    10:00 +25°C° 0 mm 2 m/s 726 mmHg 39%
    11:00 +26°C° 0 mm 1 m/s 726 mmHg 38%
    12:00 +27°C° 0 mm 1 m/s 725 mmHg 36%
    13:00 +27°C° 0 mm 2 m/s 725 mmHg 36%
    14:00 +27°C° 0 mm 2 m/s 725 mmHg 37%
    15:00 +28°C° 0 mm 2 m/s 725 mmHg 37%
    16:00 +27°C° 0,1 mm 2 m/s 725 mmHg 41%
    17:00 +26°C° 0,1 mm 2 m/s 725 mmHg 45%
    18:00 +25°C° 0,1 mm 2 m/s 725 mmHg 49%
    19:00 +23°C° 0 mm 2 m/s 726 mmHg 53%
    20:00 +20°C° 0 mm 2 m/s 726 mmHg 57%
    21:00 +18°C° 0 mm 2 m/s 726 mmHg 60%
    22:00 +18°C° 0 mm 2 m/s 726 mmHg 61%
    23:00 +18°C° 0 mm 2 m/s 726 mmHg 61%

    2 Mai, Marţi

    Timp Temperatura Precipitaţii Vânt Presiune Umiditate
    00:00 +17°C° 0 mm 2 m/s 727 mmHg 62%
    01:00 +17°C° 0 mm 2 m/s 726 mmHg 63%
    02:00 +16°C° 0 mm 1 m/s 726 mmHg 64%
    03:00 +14°C° 0 mm 0 m/s 726 mmHg 66%
    04:00 +15°C° 0 mm 0 m/s 726 mmHg 65%
    05:00 +15°C° 0 mm 0 m/s 726 mmHg 64%
    06:00 +16°C° 0 mm 0 m/s 726 mmHg 63%
    07:00 +20°C° 0 mm 1 m/s 726 mmHg 56%
    08:00 +22°C° 0 mm 1 m/s 726 mmHg 49%
    09:00 +23°C° 0 mm 2 m/s 726 mmHg 41%
    10:00 +24°C° 0 mm 2 m/s 726 mmHg 39%
    11:00 +25°C° 0 mm 3 m/s 726 mmHg 37%
    12:00 +26°C° 0 mm 3 m/s 725 mmHg 34%
    13:00 +26°C° 0,1 mm 3 m/s 725 mmHg 34%
    14:00 +27°C° 0,1 mm 3 m/s 725 mmHg 35%
    15:00 +27°C° 0,1 mm 3 m/s 725 mmHg 35%
    16:00 +26°C° 0,1 mm 3 m/s 725 mmHg 40%
    17:00 +25°C° 0,1 mm 3 m/s 725 mmHg 45%
    18:00 +23°C° 0,1 mm 2 m/s 725 mmHg 50%
    19:00 +21°C° 0,2 mm 2 m/s 725 mmHg 54%
    20:00 +20°C° 0,2 mm 2 m/s 725 mmHg 58%
    21:00 +20°C° 0,2 mm 1 m/s 725 mmHg 61%
    22:00 +19°C° 0,1 mm 1 m/s 725 mmHg 64%
    23:00 +16°C° 0,1 mm 0 m/s 725 mmHg 67%
    Arată mai mult